This is the latest recevied weather packets stored in our database for station/object EA3IBE-10. If no packets are shown the sender has not sent any weather packets the latest 10 day(s).
| Time | Temp. | Humidity | Pressure | Rain* | Wind** | Luminosity | Snow |
|---|---|---|---|---|---|---|---|
| 1777673364 | 15.56° C | 100% | 1022.1 hPa | - | - | - | - |
| 1777670963 | 15.56° C | 100% | 1022.2 hPa | - | - | - | - |
| 1777668563 | 16.11° C | 100% | 1022.2 hPa | - | - | - | - |
| 1777666163 | 16.67° C | 100% | 1022 hPa | - | - | - | - |
| 1777663775 | 17.22° C | 100% | 1021.4 hPa | - | - | - | - |
| 1777663763 | 17.22° C | 100% | 1021.4 hPa | - | - | - | - |
| 1777661363 | 17.78° C | 100% | 1021 hPa | - | - | - | - |
| 1777658963 | 18.89° C | 85% | 1020.3 hPa | - | - | - | - |
| 1777656563 | 20.56° C | 70% | 1020.2 hPa | - | - | - | - |
| 1777654163 | 21.11° C | 60% | 1020 hPa | - | - | - | - |
| 1777651763 | 22.22° C | 54% | 1019.8 hPa | - | - | - | - |
| 1777649363 | 23.33° C | 47% | 1019.8 hPa | - | - | - | - |
| 1777646963 | 24.44° C | 42% | 1019.7 hPa | - | - | - | - |
| 1777644562 | 25° C | 41% | 1019.8 hPa | - | - | - | - |
| 1777642162 | 25.56° C | 43% | 1019.6 hPa | - | - | - | - |
| 1777639762 | 27.22° C | 40% | 1019.7 hPa | - | - | - | - |
| 1777637362 | 27.22° C | 40% | 1019.8 hPa | - | - | - | - |
| 1777634962 | 27.78° C | 39% | 1019.9 hPa | - | - | - | - |
| 1777632562 | 26.67° C | 42% | 1020.2 hPa | - | - | - | - |
| 1777630162 | 25.56° C | 44% | 1020.4 hPa | - | - | - | - |
| 1777627762 | 26.67° C | 39% | 1020.3 hPa | - | - | - | - |
| 1777625362 | 29.44° C | 37% | 1020.1 hPa | - | - | - | - |
| 1777622962 | 25.56° C | 46% | 1019.6 hPa | - | - | - | - |
| 1777620561 | 23.89° C | 53% | 1019.4 hPa | - | - | - | - |
| 1777618161 | 21.11° C | 67% | 1019.2 hPa | - | - | - | - |
* Rain since midnight (hover to see other rain measurements)
** Current wind speed in m/s (hover to see current wind gust speed)